sat.trackr.live / text

‹ back to catalog

STARLINK-31120

NORAD 58778 · 2024-011P

PAYLOAD ACTIVE UNKNOWN

§ Identity

Operator
Country
US
Launch date
2024-01-14
Launch site
AFWTR
Launch vehicle
Mass (kg)
RCS (m²)

Purposes: comms

External: N2YO · Heavens-Above · Gunter

§ Orbital elements

Epoch: 2026-05-25T00:46:05.061792Z

Period
94.11 min
Inclination
53.1609°
Eccentricity
0.0001408
Mean motion
15.30196211 rev/d
Perigee alt
474.3 km
Apogee alt
476.2 km
Semi-major
6,853.4 km
B*
1.3130e-4
RAAN
19.4168°
Arg perigee
94.5606°
Mean anomaly
265.5556°
Rev number
13,195

§ Raw data

STARLINK-311201 58778U 24011P   26145.03200303  .00003531  00000+0  13130-3 0  99942 58778  53.1609  19.4168 0001408  94.5606 265.5556 15.30196211131955

JSON: /api/v1/satellites/58778 · /tle

For live sub-satellite position, see the globe view (requires WebGL).

§ Visibility from observer

Set your observer location to see the next 7 days of passes ≥ 10°. The values pass through the URL so the page stays shareable.

No JS? Fill the form by hand. The geolocation button needs JavaScript.